Location: Contre
(49.7477°N, 2.0963°E)
Time: 14:08:28
(UTC+00:00)

Meteor 2-12 Rocket - Pass Details

Date: 04 August 2024
Orbit: 936 x 956 km, 82.5° (Epoch: 14 September)

Event Time Altitude Azimuth Distance (km) Brightness Sun altitude
Rises 00:39:01 0° 353° (N) 3,609 8.7 -22.5°
Reaches altitude 10° 00:41:38 10° 360° (N) 2,662 7.9 -22.4°
Maximum altitude 00:47:27 45° 72° (ENE) 1,256 5.2 -22.2°
Enters shadow 00:51:16 21° 136° (SE) 1,991 5.8 -22.1°
